Volver al catálogo

STARLINK-11712

ActivoComunicacionesVLEO
NORAD 64135·PAYLOAD·🇺🇸 United States

Lanzado May 24, 2025 desde Cape Canaveral Space Force Station

Loading…

Próximos Pases (próximas 24 horas)

TLE

ActualizadoSource: CelesTrak SupGP

Época: Sep 14, 2026, 21:03 UTC

1 64135C 25111N   26257.87756944 -.00022901  00000+0 -17793-3 0  2573
2 64135  43.0007 273.8752 0001553 257.0269 298.8324 15.70841926    14

Sigue STARLINK-11712 en tiempo real con AllMySat

Download on the App Store